Weather History for Shannon, Ireland

Change the Weather History Date:

Thursday, November 17, 2011

  Actual Average Record
Temperature  
Mean Temperature 51 °F -  
Max Temperature 57 °F 49 °F 60 °F (1997)
Min Temperature 45 °F 39 °F 23 °F (2002)
Degree Days  
Heating Degree Days 14    
Growing Degree Days 1 (Base 50)    
Moisture  
Dew Point 50 °F    
Average Humidity 91    
Maximum Humidity 94    
Minimum Humidity 84    
Precipitation  
Precipitation 0.24 in 0.13 in - ()
Sea Level Pressure  
Sea Level Pressure 29.64 in    
Wind  
Wind Speed 15 mph ()    
Max Wind Speed 33 mph    
Max Gust Speed 44 mph    
Visibility 6.0 miles    
Events Rain    
Averages and records for this station are not official NWS values.
T = Trace of Precipitation, MM = Missing Value Source: Averaged Metar Reports

Daily Weather History Graph

Daily Weather History Graph

Search for Another Location

Airport:

Trip Planner

Search our weather history database for the weather conditions in past years. The results will help you decide how hot, cold, wet, or windy it might be!

Date:

Astronomy

Nov. 17, 2011 Rise Set
Actual Time 8:01 AM GMT 4:39 PM GMT
Civil Twilight 7:22 AM GMT 5:17 PM GMT
Nautical Twilight 6:40 AM GMT 6:00 PM GMT
Astronomical Twilight 5:59 AM GMT 6:40 PM GMT
Moon 11:00 PM GMT (11/17) 12:51 PM GMT (11/17)
Length of Visible Light 9h 55m
Length of Day
8h 38m
Waning Gibbous, 62% of the Moon is Illuminated
Nov 17
Waning Gibbous
Nov 18
Last Quarter
Nov 25
New
Dec 2
First Quarter
Dec 10
Full

Hourly Weather History & Observations

Time (GMT) Temp. Windchill Dew Point Humidity Pressure Visibility Wind Dir Wind Speed Gust Speed Precip Events Conditions
12:00 AM 46 °F - 44 °F 89% 29.85 in 12 mi SSE 8.9 mph - -   Partly Cloudy
12:00 AM 46.4 °F 42.4 °F 44.6 °F 93% 29.83 in - SSE 8.1 mph - N/A   Clear
12:30 AM 46.4 °F 41.1 °F 44.6 °F 93% 29.83 in - SSE 11.5 mph - N/A   Clear
1:00 AM 46.4 °F 41.5 °F 42.8 °F 87% 29.83 in - SSE 10.4 mph - N/A   Clear
1:30 AM 44.6 °F 40.2 °F 42.8 °F 93% 29.83 in - SE 8.1 mph - N/A   Clear
2:00 AM 44.6 °F 39.7 °F 42.8 °F 93% 29.80 in - SSE 9.2 mph - N/A   Clear
2:30 AM 46.4 °F 41.1 °F 42.8 °F 87% 29.80 in 6.2 mi SSE 11.5 mph - N/A   Scattered Clouds
3:00 AM 44.6 °F 38.8 °F 42.8 °F 93% 29.80 in 6.2 mi SSE 11.5 mph - N/A   Partly Cloudy
3:30 AM 44.6 °F 38.8 °F 42.8 °F 93% 29.80 in 6.2 mi SSE 11.5 mph - N/A   Scattered Clouds
4:00 AM 44.6 °F 38.4 °F 42.8 °F 93% 29.80 in 6.2 mi SE 12.7 mph - N/A   Mostly Cloudy
4:30 AM 46.4 °F 40.7 °F 44.6 °F 93% 29.80 in 6.2 mi SE 12.7 mph - N/A   Mostly Cloudy
5:00 AM 46.4 °F 41.1 °F 44.6 °F 93% 29.80 in 6.2 mi SE 11.5 mph - N/A   Mostly Cloudy
5:30 AM 46.4 °F 41.9 °F 44.6 °F 93% 29.77 in 6.2 mi SE 9.2 mph - N/A   Mostly Cloudy
6:00 AM 48 °F - 45 °F 87% 29.77 in 11 mi SE 11.2 mph - - Rain Light Rain
6:00 AM 48.2 °F - 44.6 °F 87% 29.77 in 6.2 mi SE 10.4 mph - N/A Rain Light Rain
6:30 AM 48.2 °F - 46.4 °F 93% 29.74 in 6.2 mi ESE 10.4 mph - N/A Rain Light Rain
7:00 AM 50.0 °F - 48.2 °F 94% 29.71 in 6.2 mi SE 13.8 mph - N/A Rain Light Rain
7:30 AM 50.0 °F - 48.2 °F 94% 29.71 in 6.2 mi SE 15.0 mph - N/A Rain Light Rain
8:00 AM 51.8 °F - 50.0 °F 94% 29.68 in 6.2 mi SSE 19.6 mph - N/A Rain Light Rain
8:30 AM 51.8 °F - 50.0 °F 94% 29.65 in 6.2 mi SSE 19.6 mph - N/A Rain Light Rain
9:00 AM 51.8 °F - 50.0 °F 94% 29.65 in 5.6 mi SSE 24.2 mph - N/A Rain Light Rain
9:30 AM 51.8 °F - 50.0 °F 94% 29.62 in 3.7 mi SSE 24.2 mph - N/A Rain Light Rain
10:00 AM 53.6 °F - 50.0 °F 88% 29.59 in 4.3 mi SSE 27.6 mph - N/A Rain Light Rain
10:30 AM 53.6 °F - 50.0 °F 88% 29.56 in 4.3 mi SSE 29.9 mph - N/A Rain Light Rain
11:00 AM 53.6 °F - 51.8 °F 94% 29.53 in 4.3 mi SSE 31.1 mph 43.7 mph N/A Rain Rain
11:30 AM 53.6 °F - 51.8 °F 94% 29.53 in 3.1 mi SSE 33.4 mph - N/A Rain Light Rain
12:00 PM 54 °F - 52 °F 91% 29.55 in 3 mi SSE 31.3 mph - - Rain Light Rain
12:00 PM 53.6 °F - 51.8 °F 94% 29.53 in 3.1 mi SSE 31.1 mph - N/A Rain Light Rain
12:30 PM 55.4 °F - 51.8 °F 88% 29.53 in 3.1 mi South 28.8 mph - N/A Rain Light Rain
1:00 PM 55.4 °F - 53.6 °F 94% 29.53 in 3.1 mi South 31.1 mph 42.6 mph N/A Rain Light Rain
1:30 PM 55.4 °F - 53.6 °F 94% 29.53 in 2.5 mi South 27.6 mph - N/A   Mostly Cloudy
2:00 PM 55.4 °F - 53.6 °F 94% 29.53 in 6.2 mi South 25.3 mph - N/A Rain Light Rain
3:00 PM 57.2 °F - 53.6 °F 88% 29.53 in 6.2 mi South 27.6 mph - N/A   Mostly Cloudy
3:30 PM 57.2 °F - 53.6 °F 88% 29.53 in 6.2 mi South 23.0 mph - N/A   Mostly Cloudy
4:00 PM 57.2 °F - 53.6 °F 88% 29.53 in 6.2 mi South 23.0 mph - N/A Rain Light Rain
4:30 PM 57.2 °F - 53.6 °F 88% 29.53 in 6.2 mi South 23.0 mph - N/A Rain Light Rain
5:00 PM 57.2 °F - 53.6 °F 88% 29.53 in 6.2 mi South 19.6 mph - N/A   Mostly Cloudy
5:30 PM 57.2 °F - 53.6 °F 88% 29.53 in 6.2 mi South 18.4 mph - N/A   Mostly Cloudy
6:00 PM 57 °F - 53 °F 84% 29.56 in 16 mi South 17.9 mph - -   Partly Cloudy
6:00 PM 57.2 °F - 53.6 °F 88% 29.53 in 6.2 mi South 18.4 mph - N/A   Mostly Cloudy
6:30 PM 57.2 °F - 53.6 °F 88% 29.53 in 6.2 mi South 20.7 mph - N/A   Mostly Cloudy
7:00 PM 57.2 °F - 53.6 °F 88% 29.56 in 6.2 mi SSE 19.6 mph - N/A   Mostly Cloudy
7:30 PM 57.2 °F - 53.6 °F 88% 29.56 in 6.2 mi South 20.7 mph - N/A   Mostly Cloudy
8:00 PM 57.2 °F - 53.6 °F 88% 29.56 in 6.2 mi South 19.6 mph - N/A Rain Light Rain
8:30 PM 57.2 °F - 53.6 °F 88% 29.56 in 6.2 mi SSE 16.1 mph - N/A Rain Light Rain
9:00 PM 57.2 °F - 53.6 °F 88% 29.56 in 6.2 mi SSE 15.0 mph - N/A   Mostly Cloudy
9:30 PM 57.2 °F - 53.6 °F 88% 29.56 in 6.2 mi South 17.3 mph - N/A   Mostly Cloudy
10:00 PM 57.2 °F - 53.6 °F 88% 29.59 in 6.2 mi South 16.1 mph - N/A   Mostly Cloudy
10:30 PM 55.4 °F - 53.6 °F 94% 29.59 in 6.2 mi South 13.8 mph - N/A   Light Drizzle
11:00 PM 55.4 °F - 53.6 °F 94% 29.59 in 6.2 mi SSE 13.8 mph - N/A   Mostly Cloudy
11:30 PM 57.2 °F - 53.6 °F 88% 29.59 in 6.2 mi South 17.3 mph - N/A   Mostly Cloudy